SCP
0 0 0 0 0 0 0 0 0 0 0 0 0 0 0 0 0 0 0 0 0 0 0 0 1 1 0 0 0 0 0 0 0 1 1 2 2 3 3 3 3 2 2 1
0 0 0 0 0 0 0 0 0 0 0 0 0 0 0 0 0 0 0 0 0 0 0 0 1 1 0 0 0 0 0 0 0 0 1 1 2 3 3 3 3 2 2 2
0 0 0 0 0 0 0 0 0 0 0 0 0 0 0 0 0 0 0 0 0 0 0 0 1 1 0 0 0 0 0 0 0 0 0 0 1 2 2 2 2 2 2 2
0 0 0 0 0 0 0 0 0 0 0 0 0 0 0 0 0 0 0 0 0 0 0 0 0 0 0 0 0 0 0 0 0 0 0 0 0 1 1 1 1 1 2 2
0 0 0 0 0 0 0 0 0 0 0 0 0 0 0 0 0 0 0 0 0 0 0 0 0 0 0 0 0 0 0 0 0 0 0 0 0 0 0 1 1 1 1 1
0 0 0 0 0 0 0 0 0 0 0 0 0 0 0 0 0 0 0 0 0 0 0 0 0 0 0 0 0 0 0 0 0 0 0 0 0 0 0 0 0 0 1 1
0 0 0 0 0 0 0 0 0 0 0 0 0 0 0 0 0 0 0 0 0 0 0 0 0 0 0 0 0 0 0 0 0 0 0 0 0 0 0 0 0 0 0 0
0 0 0 0 0 0 0 0 0 0 0 0 0 0 0 0 0 0 0 0 0 0 0 0 0 0 0 0 0 0 0 0 0 0 0 0 0 0 0 0 0 0 0 0
0 0 0 0 0 0 0 0 0 0 0 0 0 0 0 0 0 0 0 0 0 0 0 0 0 0 0 0 0 0 0 0 0 0 0 0 0 0 0 0 0 0 0 0
0 0 0 0 0 0 0 0 0 0 0 0 0 0 0 0 0 0 0 0 0 0 0 0 0 0 0 0 0 0 0 0 0 0 0 0 0 0 0 0 0 0 0 0
0 0 0 0 0 0 0 0 0 0 0 0 0 0 0 0 0 0 0 0 0 0 0 0 0 0 0 0 0 0 0 0 0 0 0 0 0 0 0 0 0 0 0 0
0 0 0 0 0 0 0 0 0 0 0 0 0 0 0 0 0 0 0 0 0 0 0 0 0 0 0 0 0 0 0 0 0 0 0 0 0 0 0 0 0 0 0 0
0 0 0 0 0 0 0 0 0 0 0 0 0 0 0 0 0 0 0 0 0 0 0 0 0 0 0 0 0 0 0 0 0 0 0 0 0 0 0 0 0 0 0 0
0 0 0 0 0 0 0 0 0 0 0 0 0 0 0 0 0 0 0 0 0 0 0 0 0 0 0 0 0 0 0 0 0 0 0 0 0 0 0 0 0 0 0 0
0 0 0 0 0 0 0 0 0 0 0 0 0 0 0 0 0 0 0 0 0 0 0 0 0 0 0 0 0 0 0 0 0 0 0 0 0 0 0 0 0 0 0 0
0 0 0 0 0 0 0 0 0 0 0 0 0 0 0 0 0 0 0 0 0 0 0 0 0 0 0 0 0 0 0 0 0 0 0 0 0 0 0 0 0 0 0 0
0 0 0 0 0 0 0 0 0 0 0 0 0 0 0 0 0 0 0 0 0 0 0 0 0 0 0 0 0 0 0 0 0 0 0 0 0 0 0 0 0 0 0 0
0 0 0 0 0 0 0 0 0 0 0 0 0 0 0 0 0 0 0 0 0 0 0 0 0 0 0 0 0 0 0 0 0 0 0 0 0 0 0 0 0 0 0 0
0 0 0 0 0 0 0 0 0 0 0 0 0 0 0 0 0 0 0 0 0 0 0 0 0 0 0 0 0 0 0 0 0 0 0 0 0 0 0 0 0 0 0 0
0 0 0 0 0 0 0 0 0 0 0 0 0 0 0 0 0 0 0 0 0 0 0 0 0 0 0 0 0 0 0 0 0 0 0 0 0 0 0 0 0 0 0 0
0 0 0 0 0 0 0 0 0 0 0 0 0 0 0 0 0 0 0 0 0 0 0 0 0 0 0 0 0 0 0 0 0 0 0 0 0 0 0 0 0 0 0 0
0 0 0 0 0 0 0 0 0 0 0 0 0 0 0 0 0 0 0 0 0 0 0 0 0 0 0 0 0 0 0 0 0 0 0 0 0 0 0 0 0 0 0 0
0 0 0 0 0 0 0 0 0 0 0 0 0 0 0 0 0 0 0 0 0 0 0 0 0 0 0 0 0 0 0 0 0 0 0 0 0 0 0 0 0 0 0 0
0 0 0 0 0 0 0 0 0 0 0 0 0 0 0 0 0 0 0 0 0 0 0 0 0 0 0 0 0 0 0 0 0 0 0 0 0 0 0 0 0 0 0 0
0 0 0 0 0 0 0 0 0 0 0 0 0 0 0 0 0 0 0 0 0 0 0 0 0 0 0 0 0 0 0 0 0 0 0 0 0 0 0 0 0 0 0 0
0 0 0 0 0 0 0 0 0 0 0 0 0 0 0 0 0 0 0 0 0 0 0 0 0 0 0 0 0 0 0 0 0 0 0 0 0 0 0 0 0 0 0 0
0 0 0 0 0 0 0 0 0 0 0 0 0 0 0 0 0 0 0 0 0 0 0 0 0 0 0 0 0 0 0 0 0 0 0 0 0 0 0 0 0 0 0 0
Wind_Speed
4 4 2 4 6 6 8 8 7 6 6 6 4 4 3 2 2 2 3 2 2 2 1 1 1 1 0 0 0 0 1 1 1 1 1 1 1 2 2 2 2 2 2 3
4 4 3 6 7 8 8 8 8 8 10 5 4 3 4 4 3 3 3 3 3 3 1 1 1 1 0 1 1 0 1 1 1 1 1 1 1 2 2 2 2 2 3 3
3 2 3 7 7 8 6 5 5 8 7 4 4 5 5 4 4 4 4 4 4 3 2 1 1 1 1 1 1 1 1 1 1 1 1 1 2 2 2 2 2 2 2 3
2 1 6 6 1 4 4 5 5 4 4 4 4 5 4 3 3 4 4 4 3 2 2 1 1 0 0 0 0 1 1 1 1 1 1 2 2 2 2 2 2 2 3 3
2 4 7 3 1 2 2 5 3 4 5 4 4 4 2 3 4 4 4 4 3 2 1 1 1 1 1 0 1 1 1 1 2 2 2 2 2 2 2 2 2 3 3 3
3 3 6 3 1 1 2 4 2 1 3 4 4 3 3 4 5 4 4 3 3 2 2 1 1 1 1 0 1 1 1 2 2 2 2 2 2 2 2 2 3 3 3 3
4 4 6 1 1 2 1 4 3 2 2 2 1 3 4 4 4 3 3 3 3 2 2 2 1 1 0 1 1 1 1 2 2 2 2 2 2 2 2 2 3 3 3 3
3 4 6 1 2 3 3 2 2 2 2 2 2 3 3 4 3 3 3 3 3 2 2 2 2 1 1 1 1 2 2 2 2 2 2 2 2 2 2 2 3 3 3 4
5 5 2 3 3 2 1 2 2 2 3 2 2 3 4 3 3 3 2 2 2 2 2 2 2 1 1 1 1 2 2 2 2 3 2 2 2 2 2 2 2 3 3 3
3 4 3 3 2 2 1 2 2 2 2 2 2 3 3 3 3 3 2 2 2 2 2 2 2 2 1 1 1 1 2 2 2 2 2 2 2 2 2 2 2 3 3 3
5 4 3 3 2 1 1 2 2 3 2 2 2 3 3 3 3 2 2 2 1 1 1 2 2 2 2 2 1 1 2 2 3 2 2 2 2 2 2 2 3 3 3 3
5 3 3 3 1 0 1 2 2 3 3 2 1 2 3 2 2 2 2 1 1 1 1 2 2 2 2 2 2 1 2 2 2 2 2 2 2 3 5 5 7 7 7 6
4 1 2 3 2 0 1 2 2 2 2 2 2 1 2 2 2 2 2 1 1 1 1 1 2 2 2 2 2 2 2 3 2 2 2 2 3 3 4 5 6 7 7 7
2 0 2 2 2 2 2 2 1 1 1 1 1 1 1 2 2 2 2 2 1 1 1 1 1 2 2 2 2 2 2 3 3 2 2 2 3 3 3 3 4 4 5 7
2 2 3 3 2 2 2 1 1 2 2 2 1 1 1 2 2 3 2 1 1 1 1 1 1 2 2 2 2 2 2 2 2 2 2 2 3 3 3 3 3 3 3 4
2 2 3 3 3 3 2 2 3 3 3 2 2 2 2 2 2 3 2 1 1 2 2 2 2 2 2 1 2 2 2 3 3 2 2 2 2 2 3 3 3 3 3 3
2 3 3 3 4 4 3 3 3 3 3 3 3 2 1 1 2 2 2 2 2 3 2 2 2 2 2 2 2 2 2 2 4 3 2 2 2 2 2 3 3 3 3 4
4 4 4 4 4 5 5 4 3 3 3 3 2 1 2 2 3 3 3 2 2 2 2 2 1 1 2 2 1 1 2 2 2 2 2 2 2 2 2 3 3 4 3 4
3 3 4 4 4 4 4 4 4 3 2 2 2 3 3 3 3 3 2 2 2 3 2 1 3 1 2 2 2 1 2 2 2 2 2 3 3 2 2 2 3 3 3 3
2 2 3 3 2 3 3 3 2 2 2 2 2 2 3 3 2 2 2 3 3 2 2 2 1 1 2 2 2 1 1 2 2 2 2 2 2 2 2 3 3 3 3 3
2 2 2 2 3 3 3 2 2 3 2 2 3 3 3 3 2 2 2 3 2 1 2 3 1 1 2 2 2 1 1 2 2 2 2 2 2 2 3 3 3 3 3 3
2 2 3 3 2 3 2 2 2 2 2 2 3 2 2 2 2 2 3 3 2 3 1 1 1 3 3 3 1 1 2 2 2 2 2 2 2 2 2 3 3 3 3 3
2 2 3 3 3 3 3 2 2 2 2 3 3 3 3 3 2 2 2 2 1 3 2 2 3 4 4 2 1 1 2 2 2 2 2 2 2 2 2 3 3 3 3 3
2 2 3 2 2 2 2 2 2 2 2 2 3 3 3 2 2 2 2 2 3 3 1 3 4 4 3 1 1 1 1 2 2 2 2 2 2 2 2 3 3 3 3 3
2 2 2 2 1 2 2 2 1 1 1 1 2 2 2 2 2 2 1 2 3 2 1 3 4 3 2 1 1 1 2 2 2 2 2 2 2 2 2 2 2 2 3 3
2 2 2 2 2 2 1 1 1 1 1 1 1 1 1 1 1 1 1 1 2 2 1 1 2 2 1 1 1 2 2 3 3 2 2 2 2 2 2 2 3 2 2 2
2 2 1 1 1 1 1 1 1 1 1 1 2 1 1 1 1 1 1 1 1 1 1 1 1 1 1 1 1 2 2 2 2 2 2 2 2 2 2 3 2 2 2 2
Wind_Direction
274 290 259 240 232 219 221 229 234 257 271 282 304 317 328 334 338 335 328 321 293 284 260 228 213 222 233 243 154 282 269 280 275 279 284 294 303 301 302 307 307 296 281 281
277 267 260 259 241 228 235 245 253 272 280 283 305 324 330 336 335 324 317 314 308 297 278 260 240 251 264 270 274 259 243 260 297 305 306 299 293 293 298 296 294 298 298 286
259 278 314 265 230 212 217 223 225 245 259 314 324 322 320 321 327 316 315 314 307 295 283 274 257 222 229 258 279 268 278 295 305 312 307 304 305 300 288 285 289 288 290 295
259 318 248 244 199 188 215 249 235 253 287 311 306 310 308 325 335 322 324 317 313 313 326 333 354 34 2 2 321 296 297 307 311 311 306 309 302 292 286 286 289 284 288 288
215 247 267 253 207 151 201 273 237 254 284 307 327 321 311 1 355 333 324 320 318 321 331 347 7 70 71 18 328 303 301 310 313 300 290 291 293 295 299 299 296 294 293 290
211 233 250 252 126 88 100 272 320 289 296 318 345 318 294 346 348 339 339 339 341 352 11 20 5 52 74 298 279 290 307 316 315 306 292 287 289 296 302 298 296 299 300 293
229 240 261 266 116 93 156 260 317 323 305 306 266 255 295 331 340 343 346 352 358 4 11 2 358 53 36 325 303 319 335 324 315 310 300 293 296 297 299 300 306 301 294 291
200 225 252 149 124 188 233 303 329 330 310 290 282 301 318 329 335 345 348 351 360 7 359 359 10 32 360 325 329 347 339 322 314 310 306 309 304 302 302 303 304 302 301 304
203 220 232 187 196 221 274 303 316 312 308 302 299 301 312 320 329 334 336 340 353 359 351 357 2 8 355 326 349 349 335 322 316 312 308 307 305 302 302 303 302 301 301 302
265 267 255 220 229 250 274 287 301 303 299 290 283 293 303 310 321 327 329 335 353 3 353 343 349 356 343 337 357 344 321 313 311 314 314 313 308 305 302 300 298 300 300 301
255 274 288 253 218 225 326 318 308 311 299 279 277 288 289 296 303 310 321 332 351 343 329 332 347 345 342 348 359 341 323 317 313 312 311 314 314 311 304 283 290 295 290 290
237 232 226 260 277 15 295 291 294 301 306 309 282 275 288 290 297 306 313 324 332 330 330 329 336 336 339 346 353 336 322 317 309 310 312 312 309 314 312 300 302 300 296 296
241 280 276 277 292 287 255 279 284 266 262 287 295 275 278 287 298 306 307 303 285 285 300 314 324 324 328 333 339 331 313 312 314 322 321 315 313 313 316 321 314 309 306 307
226 233 278 271 281 307 301 293 286 278 272 264 271 284 292 297 302 298 288 287 289 286 282 285 299 307 317 326 327 321 312 307 314 315 314 313 312 311 310 315 322 322 318 319
237 219 234 265 288 294 296 306 304 286 284 292 282 272 270 275 279 283 286 294 306 289 279 275 287 299 312 315 313 307 305 303 308 311 311 311 312 313 315 316 316 319 326 327
256 253 244 253 265 277 294 292 277 271 272 272 274 273 269 266 272 276 269 239 232 260 270 268 276 286 300 308 311 305 296 302 311 305 301 306 312 316 317 317 317 320 323 325
200 240 244 262 269 272 266 260 259 260 261 260 261 268 277 286 284 280 280 271 255 256 254 248 265 289 295 289 293 296 300 301 307 312 306 305 308 310 311 313 315 317 316 319
216 227 229 237 248 259 266 266 261 261 254 252 254 249 245 241 250 266 275 287 295 288 268 251 268 292 290 290 288 284 293 297 298 303 306 304 307 304 308 310 311 312 315 319
245 244 246 244 243 245 252 256 260 260 257 234 226 241 247 247 246 254 262 267 266 271 273 262 292 303 276 278 294 267 277 284 293 299 304 303 308 307 306 307 308 308 310 315
272 262 262 264 258 242 248 254 255 261 250 221 223 244 260 261 255 256 259 257 247 244 254 275 278 262 267 272 294 275 272 277 284 293 301 302 300 300 302 303 303 304 306 305
295 290 286 282 282 275 255 246 241 252 255 229 221 231 244 259 251 239 243 268 268 248 262 287 292 271 270 283 292 279 272 276 281 283 286 290 295 299 300 300 299 301 303 305
292 291 293 292 290 291 286 261 241 246 250 244 238 233 237 253 257 257 243 239 245 274 293 261 264 272 290 298 266 260 266 274 279 279 279 282 285 289 294 300 299 297 298 300
283 283 286 287 282 287 298 284 253 239 238 239 237 234 233 240 238 240 266 251 242 274 297 263 276 289 309 324 282 266 268 272 277 278 278 277 280 282 286 292 295 299 295 295
293 292 287 288 291 300 301 301 290 268 254 251 243 235 229 247 265 245 246 267 284 293 285 276 289 302 330 343 304 294 286 281 278 274 277 279 280 283 285 289 293 297 298 297
285 284 286 293 288 277 279 295 305 297 287 281 279 264 235 226 237 263 278 264 273 300 300 290 303 317 336 314 299 292 286 280 283 287 280 283 283 286 287 291 294 298 300 304
282 279 273 263 258 268 273 272 275 284 301 308 306 293 286 279 256 259 263 263 268 301 313 291 292 305 310 301 298 297 296 300 303 299 291 288 285 286 287 290 292 293 298 303
290 287 290 298 293 277 258 252 258 274 276 274 286 289 295 298 286 279 277 273 276 281 282 278 276 278 281 288 294 298 299 297 296 294 292 290 290 291 292 291 292 296 301 304